www.pogodaiklimat.ru

Погода и климат >> Архив погоды >> Россия >> Оренбургская область >> Акбулак


ПОГОДА в Акбулаке

  • Прогноз погоды в Акбулаке
  • Монитор погоды в Акбулаке
  • Климат города

АРХИВ ПОГОДЫ в Акбулаке

Время (UTC), дата Ветер
(напр.,м/с)
 
Видим.   Явления Облачность Т
(С)
Тd
(С)
f
(%)
Тe
(С)
Тes
(С)
Комфортность P
(гПа)
Po
(гПа)
Тmin
(С)
Tmax
(С)
R
(мм)
R24
(мм)
S
(см)
18 12.02 СВ 1 20 км ясно -19.6 -21.4 86 -23 -23 1025.2 1005.4
21 12.02 СЗ 1 20 км ясно -21.1 -23.0 85 -24 -24 1026.0 1006.0
00 13.02 С 1 20 км ясно -21.6 -23.5 85 -25 -25 1026.0 1005.9
03 13.02 штиль 0 20 км ясно -23.0 -25.0 84 -23 -23 1026.7 1006.5 -23.4 10
06 13.02 штиль 0 20 км ясно -17.6 -20.6 77 -18 -14 1026.6 1006.9 -23.7
09 13.02 С 2 20 км ясно -9.2 -14.3 66 -14 -9 1025.9 1006.8
12 13.02 СВ 2 20 км ясно -8.7 -14.7 62 -13 -12 1026.1 1007.0
15 13.02 СВ 1 20 км ясно -15.1 -17.7 80 -18 -18 1027.7 1008.2 -8.1
18 13.02 СВ 1 20 км ясно -19.4 -21.1 86 -22 -22 1028.9 1008.9
21 13.02 штиль 0 20 км ясно -21.3 -23.2 85 -21 -21 1029.6 1009.5
00 14.02 штиль 0 20 км 10/0
[Ac As]
-21.9 -23.9 84 -22 -22 1030.5 1010.3
03 14.02 штиль 0 1000 м дымка 10/10 540 м
[St]
-21.3 -23.2 85 -21 -21 1031.3 1011.2 -22.7 10
06 14.02 штиль 0 20 км 3/0
[Ci fib]
-17.8 -19.4 87 -18 -15 1031.6 1011.8
09 14.02 СЗ 2 20 км 3/0
[Ci fib]
-10.1 -14.5 70 -15 -11 1031.2 1012.0
12 14.02 З 2 20 км ясно -8.0 -13.1 67 -12 -12 1031.7 1012.6
15 14.02 СЗ 2 20 км ясно -12.3 -14.0 87 -17 -17 1033.1 1013.7 -8.0
18 14.02 штиль 0 20 км ясно -16.7 -17.9 90 -17 -17 1034.2 1014.4
21 14.02 штиль 0 20 км ясно -18.3 -19.7 89 -18 -18 1034.8 1014.8
00 15.02 СЗ 1 20 км ясно -18.2 -19.6 89 -21 -21 1035.8 1015.8
03 15.02 С 1 20 км ясно -22.5 -24.6 83 -26 -26 1037.4 1017.0 -22.5 10
06 15.02 штиль 0 20 км ясно -17.0 -18.5 88 -17 -13 1038.3 1018.4 -23.7
09 15.02 З 1 20 км ясно -9.9 -15.3 65 -12 -7 1039.1 1019.7
12 15.02 З 1 20 км ясно -7.4 -14.2 58 -9 -9 1039.5 1020.3
15 15.02 штиль 0 20 км ясно -12.9 -15.5 81 -13 -13 1040.9 1021.2 -7.0
18 15.02 штиль 0 20 км ясно -17.1 -18.6 88 -17 -17 1041.7 1021.7
21 15.02 штиль 0 20 км ясно -18.5 -19.8 89 -19 -19 1042.1 1022.0
00 16.02 штиль 0 20 км ясно -18.6 -20.2 87 -19 -19 1043.0 1022.9
03 16.02 СВ 1 20 км ясно -20.4 -22.2 85 -23 -23 1043.9 1023.7 -20.4 10
06 16.02 ЮВ 1 20 км 3/0
[Ac As]
-16.4 -18.3 85 -19 -17 1044.4 1024.5 -20.9
09 16.02 Ю 1 20 км 10/0
[Ac As]
-8.6 -13.4 68 -11 -9 1044.2 1024.8
12 16.02 С 2 20 км 10/10 660 м
[Sc]
-7.5 -9.4 86 -12 -12 1043.8 1024.5
15 16.02 СВ 1 20 км 10/10 660 м
[Sc]
-8.4 -9.5 92 -11 -11 1044.0 1024.6 -6.9
18 16.02 СЗ 1 20 км 10/10 660 м
[Sc]
-8.1 -9.0 93 -11 -11 1043.9 1024.6
21 16.02 штиль 0 20 км 10/10 630 м
[Sc]
-8.1 -9.0 93 -9 -9 1043.6 1024.2
00 17.02 штиль 0 4000 м дымка 10/10 480 м
[St]
-8.4 -9.2 94 -9 -9 1043.4 1024.0
03 17.02 штиль 0 1000 м дымка 10/10 450 м
[St]
-8.9 -9.7 94 -10 -10 1043.3 1023.9 -9.0 10
06 17.02 СВ 1 1000 м дымка 10/10 450 м
[St]
-9.4 -10.2 94 -12 -12 1043.3 1023.9 -9.4
09 17.02 С 1 20 км 5/5 300 м
[St]
-6.9 -7.8 93 -9 -7 1042.5 1023.3
12 17.02 В 2 20 км ясно -5.3 -9.6 72 -9 -9 1041.4 1022.3
15 17.02 В 1 20 км ясно -11.5 -13.2 87 -14 -14 1041.8 1022.2 -4.4
18 17.02 В 1 20 км ясно -13.6 -14.7 91 -16 -16 1041.4 1021.7
21 17.02 Ю 1 20 км ясно -16.6 -18.0 89 -19 -19 1041.1 1021.2
00 18.02 В 2 20 км ясно -16.7 -18.1 89 -22 -22 1041.0 1021.0
03 18.02 ЮВ 2 20 км ясно -15.8 -17.2 89 -21 -21 1040.2 1020.3 -18.2 10
06 18.02 ЮВ 3 20 км ясно -14.8 -16.5 87 -21 -19 1040.6 1020.8
09 18.02 ЮВ 4 20 км 3/0
[Ci fib]
-9.0 -13.1 72 -16 -13 1039.2 1019.9
12 18.02 ЮВ 5 20 км 9/0
[Ci fib]
-9.6 -13.4 74 -17 -17 1038.0 1018.6
15 18.02 ЮВ 4 20 км 10/0
[As op]
-12.2 -14.8 81 -19 -19 1037.5 1018.0 -8.2
18 18.02 ЮВ 4 20 км 10/0
[As trans]
-13.4 -15.8 82 -21 -21 1037.0 1017.4
21 18.02 ЮВ 3 20 км 10/0
[As op]
-12.8 -15.8 78 -19 -19 1035.9 1016.3
00 19.02 ЮВ 3 20 км 10/0
[Ac As]
-12.8 -15.5 80 -19 -19 1034.5 1015.0
03 19.02 ЮВ 5 20 км 10/0
[Ac As]
-12.8 -15.4 81 -21 -21 1033.3 1013.8 -13.6 10
06 19.02 ЮВ 5
{10}
20 км 9/0
[Ac As]
-10.9 -15.0 72 -19 -18 1032.3 1012.9
09 19.02 ЮВ 4 20 км 8/0
[Ac trans Ci fib]
-7.0 -13.4 60 -13 -11 1030.7 1011.7
12 19.02 ЮВ 4 20 км 6/3 600 м
[Sc Ac trans Ci fib]
-5.9 -13.1 57 -12 -12 1028.3 1009.4
15 19.02 ЮВ 5
{10}
20 км 9/0
[Ac trans Ci fib]
-8.5 -13.9 65 -16 -16 1027.4 1008.4 -4.9

 

Местоположение метеостанции Акбулак (Оренбургская область, Россия): широта 51.02 долгота 55.63 высота над уровнем моря 144 м.

В архиве по умолчанию представлена погода в Акбулаке за последнюю неделю. Архивные данные за месяц целиком и за предыдущие месяцы, начиная с января 2011 года, Вы можете получить, выбрав интересующий диапазон дат из раскрывающегося списка и нажав кнопку "Ввод!".

Внимание! Время в таблицах - всемирное. Для получения местного времени необходимо прибавить поправку, которая в Акбулаке равна 5 ч.

Смотрите также архив погоды в соседних городах и на ближайших метеорологических станциях:

Погода в Соль-Илецк (Оренбургская область, Россия) (45 км)
Погода в Мартуке (Актюбинская область, Казахстан) (70 км)
Погода в Беляевке (Оренбургская область, Россия) (71 км)
Погода в Оренбурге (Оренбургская область, Россия) (82 км)
Погода в Новоалексеевке (Костанайская область, Казахстан) (99 км)
Погода в Чингирлау (Западно-Казахстанская область, Казахстан) (107 км)
Погода в Родниковке (Актюбинская область, Казахстан) (116 км)
Погода в Каралаатсае (Актюбинская область, Казахстан) (127 км)
Погода в Кувандыке (Оренбургская область, Россия) (131 км)
Погода в Актобе (Актюбинская область, Казахстан) (135 км)

Пояснения к столбцам:

Ветер - указаны скорость ветра в м/с - средняя за 10 мин, порывы в срок и между сроками (в фигурных скобках) и направление, откуда дует ветер: С - северный, СВ - северо-восточный, В - восточный, ЮВ - юго-восточный, Ю - южный, ЮЗ - юго-западный, З - западный, СЗ - северо-западный.
Видимость - горизонтальная дальность видимости в метрах или километрах. При видимости от 1 до 10 км при отсутствии осадков обычно наблюдается дымка, при ухудшении видимости до 1 км и менее - туман. В сухую погоду видимость может ухудшаться дымом, пылью или мглою.
Явления - указаны атмосферные явления, наблюдавшиеся в срок или в последний час перед сроком; фигурными скобками обозначены явления, наблюдавшиеся между сроками (за 1-3 часа до срока); квадратными скобками обозначены град или гололедные отложения с указанием их диаметра в мм.
Облачность - указаны через наклонную черту общая и нижняя облачность в баллах и высота нижней границы облаков в метрах; квадратными скобками обозначены формы облаков: Ci - перистые, Cs - перисто-слоистые, Cc - перисто-кучевые, Ac - высококучевые, As - высокослоистые, Sc - слоисто-кучевые, Ns - слоисто-дождевые, Cu - кучевые, Cb - кучево-дождевые. Подробнее классификацию облаков см. в Атласе облаков (PDF).
T - Температура воздуха - температура, измеренная на высоте 2 м над землей.
Td - Температура точки росы - температура, при понижении до которой содержащийся в воздухе водяной пар достигнет насыщения.
f - Относительная влажность воздуха - влажноcть воздуха, измеренная на высоте 2 м над землей.
Te - Эффективная температура - температура, которую ощущает одетый по сезону человек в тени. Характеристика душности погоды. При расчете учитывается влияние влажности воздуха и скорости ветра на теплоощущения человека.
Tes - Эффективная температура на солнце - температура, которую ощущает человек, с поправкой на солнечный нагрев. Характеристика знойности погоды. Зависит от высоты солнца над горизонтом, облачности и скорости ветра. Ночью, в пасмурную погоду, а также при ветре 12 м/с и более поправка равна нулю.
P - Атмосферное давление - приведенное к уровню моря атмосферное давление.
Po - Атмосферное давление - измеренное на уровне метеостанции атмосферное давление.
Tmin - Минимальная температура - минимум температуры воздуха на высоте 2 м над землей.
Tmax - Максимальная температура - максимум температуры воздуха на высоте 2 м над землей.
R - Количество осадков - Количество выпавших осадков за период времени, мм. При наведении курсора мыши на число - период времени, за который выпало указанное количество осадков.
R24 - Количество осадков - Количество выпавших осадков за 24 часа, мм.
S - Снежный покров - Высота снежного покрова, см. При наведении курсора мыши на число - состояние снежного покрова и степень покрытия местности в баллах.